Overview Statistics Trail Chart Weather Telemetry Raw packets
 

This is the latest recevied weather packets stored in our database for station/object DG0LHZ-10. If no packets are shown the sender has not sent any weather packets the latest 10 day(s).

<< 24 25 26 27 28 29 30 >>
Time Temp. Humidity Pressure Rain* Wind** Luminosity Snow
1787787765 15.56° C 55% 1020.7 hPa - - - -
1787786865 15.56° C 55% 1020.7 hPa - - - -
1787785965 16.11° C 54% 1020.8 hPa - - - -
1787785065 16.11° C 55% 1020.8 hPa - - - -
1787784165 16.11° C 54% 1020.8 hPa - - - -
1787783265 16.11° C 54% 1020.9 hPa - - - -
1787782365 16.67° C 53% 1021 hPa - - - -
1787781465 16.67° C 54% 1021 hPa - - - -
1787780565 16.67° C 54% 1021.2 hPa - - - -
1787779665 16.67° C 53% 1021.1 hPa - - - -
1787778765 17.22° C 53% 1021.2 hPa - - - -
1787777865 17.22° C 53% 1021.2 hPa - - - -
1787776965 17.78° C 53% 1021 hPa - - - -
1787776065 17.78° C 53% 1021.1 hPa - - - -
1787775165 17.78° C 52% 1021.1 hPa - - - -
1787774265 18.33° C 53% 1021.2 hPa - - - -
1787773365 18.33° C 53% 1021.2 hPa - - - -
1787772464 18.89° C 52% 1021.2 hPa - - - -
1787771564 18.89° C 53% 1021.2 hPa - - - -
1787770664 19.44° C 53% 1021.1 hPa - - - -
1787769764 19.44° C 53% 1021 hPa - - - -
1787768864 20° C 53% 1021 hPa - - - -
1787767964 20° C 53% 1020.8 hPa - - - -
1787767064 20.56° C 53% 1020.9 hPa - - - -
1787766164 20.56° C 53% 1021 hPa - - - -

* Rain since midnight (hover to see other rain measurements)
** Current wind speed in m/s (hover to see current wind gust speed)